{"data":{"norad_id":67610,"epoch":"2026-05-25T03:54:31.293216Z","epoch_age_seconds":54233,"freshness":"FRESH","line1":"1 67610U 26018X   26145.16286219  .00169709  00000+0  11155-2 0  9996","line2":"2 67610  97.2833 214.8690 0001248  44.7209 315.4157 15.75205013 19358","mean_motion":15.75205013,"eccentricity":0.0001248,"inclination_deg":97.2833,"raan_deg":214.869,"arg_perigee_deg":44.7209,"mean_anomaly_deg":315.4157,"bstar":0.0011155,"rev_number":1935,"period_min":91.416671996079,"perigee_km":343.20892770749,"apogee_km":344.88678504764,"semimajor_km":6722.1848563776,"source":"CELESTRAK","updated_at":"2026-05-25T13:38:21.647848Z"}}